Theta_e
315 316 323 325 320 321 326 332 335 338 340 342 343 344 339 345 347 348 346 336 337 335 330 329 326 323 321 321 321 323 325 328 330 331 331 330 328 329 328 328 326 323 325 326 327 328 327 326 326
316 319 323 322 321 327 330 325 335 332 334 343 342 350 352 352 352 345 338 337 337 336 333 331 329 325 322 321 321 321 323 325 327 328 329 330 329 328 328 328 329 327 327 327 328 328 327 327 327
320 321 321 316 317 325 325 325 328 323 346 346 348 349 352 353 351 341 333 336 338 337 335 333 331 329 324 322 321 321 321 323 325 326 327 328 329 329 328 328 329 330 329 329 329 329 330 329 329
321 321 318 316 322 321 324 322 320 323 346 341 347 349 351 353 343 332 328 332 338 337 336 334 333 332 328 323 322 321 321 322 323 325 326 327 328 330 330 329 330 330 331 331 331 331 331 331 331
321 319 313 316 318 317 317 319 317 323 339 342 348 351 350 347 342 335 335 333 337 337 337 336 335 334 332 326 322 321 321 322 322 324 325 326 327 328 331 332 331 331 331 331 331 332 332 332 332
319 316 313 315 317 316 316 319 317 330 341 349 350 351 350 348 344 341 340 338 336 337 336 336 336 334 333 330 324 322 321 321 322 323 324 325 326 326 327 329 331 332 333 333 332 332 333 334 334
315 311 314 316 317 316 318 319 318 337 341 346 350 350 346 351 349 344 341 337 337 338 337 336 335 335 334 330 327 323 322 322 322 322 323 323 324 324 324 324 324 327 330 333 333 333 333 334 334
319 310 315 314 315 318 318 318 320 339 341 348 345 346 346 352 348 344 340 336 336 338 337 336 336 335 334 332 329 326 323 323 322 322 322 323 323 323 323 323 323 322 323 325 328 331 334 334 334
319 310 311 316 316 317 317 316 320 326 345 346 343 340 339 351 348 342 337 334 335 337 337 336 336 335 334 333 329 327 324 323 323 322 322 322 323 323 323 323 323 323 323 323 323 323 325 330 334
314 309 312 313 315 316 316 317 319 320 339 343 343 345 342 349 347 343 341 339 334 334 336 337 336 336 335 333 329 326 324 323 323 323 322 322 322 323 323 323 324 325 326 324 326 324 333 333 326
313 313 312 316 318 317 317 318 319 320 326 331 338 341 344 347 346 343 342 337 333 331 331 333 334 334 333 332 329 326 325 324 323 323 323 323 323 323 323 323 328 332 330 330 330 332 335 336 339
316 315 315 318 319 318 316 318 318 319 321 326 334 341 343 344 344 343 343 338 329 328 326 326 330 332 334 334 332 327 324 324 323 323 323 323 323 324 326 327 331 337 336 336 336 336 336 333 330
314 315 318 322 322 320 317 317 317 319 323 328 337 343 343 343 343 343 344 341 336 329 330 331 336 335 331 332 333 330 325 324 323 323 323 323 324 325 326 332 334 335 339 340 340 339 339 338 337
317 317 320 321 321 320 317 319 319 321 323 327 340 342 343 343 342 343 344 344 341 339 339 339 341 338 332 328 331 331 326 324 323 323 323 323 324 325 326 330 336 338 338 339 341 340 339 338 339
320 319 316 319 320 320 319 320 320 322 323 330 341 347 345 345 344 343 342 344 343 342 340 341 342 342 335 330 327 327 324 324 323 324 324 324 324 324 326 327 331 337 339 341 340 339 338 339 339
317 315 317 317 319 320 320 320 319 320 320 322 324 345 347 347 346 344 343 343 344 343 340 341 341 339 340 335 328 326 324 324 324 336 338 331 328 334 334 337 341 337 340 340 341 339 338 339 339
312 318 318 317 318 320 320 320 319 325 325 325 324 326 346 348 347 346 345 345 344 344 343 340 338 333 339 340 334 329 326 327 335 338 341 334 337 340 341 342 342 341 339 341 342 340 340 339 338
318 318 317 318 319 317 319 318 316 325 325 325 327 326 330 344 346 346 347 347 345 344 343 342 336 333 339 340 338 334 332 333 337 338 340 341 340 340 341 341 341 340 341 342 342 340 339 337 337
318 318 318 318 317 320 319 319 323 325 326 326 329 335 335 325 335 339 340 339 339 342 344 342 339 333 336 340 339 338 336 336 337 339 341 342 342 345 342 341 339 341 341 344 341 339 338 336 338
317 319 317 317 317 319 318 319 325 324 325 325 326 333 337 339 339 338 338 337 338 341 343 343 342 337 335 339 340 339 338 337 337 341 343 345 343 345 343 341 341 340 341 342 341 338 334 330 330
317 318 318 319 318 318 319 319 322 323 326 326 329 333 337 338 339 340 341 340 339 339 340 340 339 339 338 338 342 340 339 338 340 343 346 344 345 344 344 344 343 341 342 339 339 336 332 328 327
320 317 318 319 319 320 318 319 317 324 325 324 324 326 329 334 338 339 340 340 340 340 339 339 340 342 343 345 344 343 342 342 341 342 338 341 341 336 342 336 331 336 340 334 331 338 333 331 328
318 319 319 319 318 318 319 317 316 325 327 325 323 325 326 330 334 335 335 334 335 335 335 332 334 335 335 336 338 339 338 334 339 334 335 336 338 339 339 336 330 329 334 340 340 339 337 334 328
320 320 317 314 314 319 320 318 318 327 327 325 322 323 325 328 329 329 329 329 329 329 327 326 329 330 327 327 330 332 330 331 331 332 333 335 337 337 338 338 337 338 338 339 339 339 338 333 330
319 319 321 321 319 321 322 321 320 326 324 323 322 321 322 326 328 328 328 326 324 322 321 320 318 317 317 315 316 318 318 319 319 319 319 320 322 325 330 333 334 334 337 339 339 338 337 336 333
321 319 320 325 324 322 321 324 323 324 323 322 321 321 322 324 326 328 326 325 324 323 322 321 322 320 315 314 313 313 313 313 313 313 313 314 315 316 319 323 326 328 331 334 335 336 336 333 331
322 321 318 321 320 325 322 325 323 324 324 324 322 320 321 322 322 325 327 325 319 320 321 321 321 319 315 314 313 313 311 312 312 312 311 310 310 310 312 312 315 318 318 320 325 331 334 335 334
320 318 323 319 324 321 321 325 324 326 324 322 322 320 320 319 319 318 318 318 320 322 322 322 321 321 319 318 313 312 312 311 311 311 311 311 311 310 308 308 309 309 311 314 316 318 323 329 334
320 322 318 319 319 322 322 322 318 321 321 322 322 322 320 319 319 319 319 320 322 320 318 317 316 316 315 313 313 313 313 312 312 312 311 311 310 310 311 310 308 308 308 309 311 315 319 322 328
315 316 317 318 318 317 317 318 315 317 319 322 323 323 323 321 321 322 321 322 320 317 316 316 315 313 314 318 317 317 317 314 313 312 311 311 311 310 309 309 310 309 309 308 308 310 313 322 325
Wind_Speed
4 5 5 3 4 5 3 5 2 4 3 4 11 6 7 2 4 4 6 29 29 28 26 23 20 18 17 15 15 14 13 13 13 13 12 12 12 13 14 15 17 18 18 18 19 18 18 19 19
3 4 2 3 5 4 5 5 6 5 7 8 11 4 3 3 4 1 19 32 30 27 25 23 21 19 17 16 15 14 14 13 13 13 13 12 12 12 13 14 15 16 16 16 15 15 17 17 18
2 2 1 4 3 3 1 4 7 16 6 8 3 2 0 2 4 8 23 31 31 27 25 23 22 20 17 16 15 14 14 13 13 13 13 12 12 12 12 13 13 14 14 14 13 13 14 15 16
3 2 5 4 2 3 4 5 9 7 6 4 4 1 2 3 4 19 29 28 31 29 26 24 22 19 17 16 15 14 13 13 13 13 12 11 11 11 11 11 11 11 11 11 11 10 11 11 12
1 2 4 3 3 4 5 8 13 4 1 6 8 2 2 5 5 18 24 27 30 29 26 24 21 19 17 16 15 13 13 12 12 12 11 10 9 9 9 9 9 9 9 8 8 7 7 8 8
2 3 5 1 3 6 8 8 13 1 4 4 5 6 3 8 9 16 21 24 28 27 27 24 22 20 18 16 15 14 13 13 12 12 11 10 8 7 7 7 7 7 7 6 6 5 5 3 4
5 4 4 3 2 5 5 17 7 3 5 3 6 4 2 11 12 18 21 24 28 27 27 26 24 22 19 17 16 15 14 13 12 11 11 9 8 7 6 5 5 5 5 5 4 3 2 0 1
3 5 2 2 1 4 5 15 19 4 2 4 5 3 3 16 18 22 22 26 27 28 28 28 26 24 23 21 19 16 15 13 12 11 10 9 8 6 6 5 4 5 5 5 4 3 2 3 4
3 5 1 3 2 3 7 10 13 9 1 4 2 5 5 20 22 24 24 27 30 31 31 31 28 26 24 21 19 17 16 14 13 12 11 11 9 7 6 6 4 4 4 4 4 3 1 2 4
4 4 9 4 2 4 10 4 13 5 1 6 8 8 10 25 27 27 27 29 31 33 32 31 29 27 25 23 21 20 18 17 15 14 13 10 9 9 7 6 5 4 4 3 3 2 3 4 1
3 5 5 5 12 13 7 10 2 2 3 9 8 10 18 27 29 28 25 24 27 29 29 29 28 27 26 24 22 22 20 19 17 16 13 12 12 11 9 8 7 6 6 6 5 4 3 4 3
1 3 4 7 8 7 5 5 2 10 8 6 9 13 22 29 31 29 27 25 27 31 28 26 29 31 30 28 25 23 22 20 18 16 15 15 13 12 10 11 10 8 6 5 3 4 2 4 5
2 3 4 12 16 13 9 7 3 10 9 9 9 17 23 28 31 28 26 24 25 28 28 29 24 26 28 29 27 25 23 20 17 17 17 16 16 13 12 11 11 10 8 5 3 2 2 4 4
4 5 11 9 10 4 2 5 1 6 7 7 16 20 26 29 30 31 30 29 29 26 29 27 26 24 25 28 27 24 22 20 19 18 17 18 17 15 14 13 14 11 9 8 7 8 8 6 8
4 4 6 2 2 2 3 7 2 8 9 12 18 26 30 33 31 33 32 31 29 26 31 30 27 25 24 24 25 25 23 22 20 19 19 19 19 17 16 16 15 10 11 10 12 11 10 11 10
4 5 4 4 7 4 3 6 3 17 13 13 15 18 29 33 37 34 36 33 31 29 30 29 28 23 22 22 25 25 24 22 21 18 17 20 18 16 16 13 10 12 11 10 12 14 15 14 15
7 1 3 8 4 1 4 6 7 19 17 17 21 9 26 34 38 39 39 37 33 30 32 33 28 26 25 23 22 23 23 23 22 19 16 17 17 15 15 15 14 10 11 10 12 14 16 15 14
2 3 4 4 2 7 3 6 7 17 19 21 28 19 13 28 38 37 39 36 31 34 35 32 25 26 27 28 26 25 25 26 25 23 19 16 16 17 19 20 17 11 12 11 12 14 12 14 13
2 2 3 6 5 1 3 1 8 17 26 28 26 21 14 10 24 29 31 32 32 34 35 36 31 28 27 29 32 29 28 27 25 22 21 19 18 19 19 17 12 11 15 17 17 13 10 12 13
3 2 7 7 3 4 5 3 5 13 12 18 19 20 16 9 6 9 18 23 23 28 28 34 35 30 28 27 29 31 33 31 28 27 23 22 18 20 19 15 13 12 15 17 20 16 11 9 17
4 4 5 8 7 2 1 3 4 3 12 20 21 18 19 17 10 7 2 3 8 14 16 15 17 19 19 21 22 27 31 31 23 20 17 19 21 22 20 15 14 13 15 17 19 21 23 19 18
4 8 7 5 3 3 2 4 2 5 6 13 21 21 18 18 22 19 18 15 10 12 13 13 16 11 14 14 21 21 24 27 22 19 17 17 17 20 15 10 17 14 16 17 21 29 28 26 21
9 2 4 3 4 3 1 4 5 4 5 6 12 13 13 16 20 24 27 27 20 15 20 25 20 22 23 18 13 14 16 21 18 19 31 26 22 24 20 19 25 33 24 25 21 25 28 27 24
2 2 6 4 3 1 3 5 4 3 3 4 5 8 10 15 19 23 24 23 26 24 25 27 27 27 33 32 24 20 5 4 9 7 3 2 6 8 9 13 17 17 17 18 20 25 26 27 26
4 5 3 4 3 5 3 3 5 4 2 2 0 3 8 15 20 23 25 28 28 29 29 30 32 34 31 26 26 22 20 16 13 12 10 7 6 5 4 6 8 10 14 18 23 28 29 31 29
5 8 5 5 4 4 2 4 4 4 6 4 4 4 9 14 18 21 25 25 21 19 19 17 17 14 17 22 24 21 20 17 15 14 12 9 8 7 5 3 2 3 8 12 17 20 23 25 26
5 3 3 7 4 2 3 3 4 4 6 9 8 8 12 17 19 20 21 20 22 12 11 11 7 8 10 14 15 14 18 16 16 17 15 13 10 6 4 3 5 8 10 11 14 16 19 24 29
4 5 3 2 3 4 3 3 5 10 12 9 12 17 18 21 22 21 22 18 5 11 11 9 8 9 7 5 7 12 15 16 15 19 19 17 14 12 7 5 6 8 11 13 15 17 18 20 20
3 2 6 4 4 5 2 5 6 11 12 15 21 26 25 23 21 17 15 6 13 7 7 8 10 6 6 11 9 6 9 14 16 16 18 17 16 15 15 13 9 11 12 14 16 17 18 19 18
1 6 6 5 5 1 2 6 3 6 14 22 23 26 27 23 21 18 15 12 7 4 5 2 1 7 3 8 14 19 20 17 17 17 17 17 15 16 18 17 15 14 11 14 16 18 17 17 17
Wind_Direction
325 340 351 60 47 62 330 308 256 299 304 222 154 176 211 221 172 207 175 168 170 166 162 159 158 156 157 155 152 150 148 148 144 138 132 127 124 118 106 99 96 97 97 95 93 91 89 90 87
335 348 20 77 80 61 297 284 296 261 265 158 164 126 101 300 297 322 152 161 169 168 165 162 161 161 162 160 157 157 155 153 149 145 142 138 132 123 114 106 101 101 100 97 93 91 88 87 85
356 15 8 91 89 142 223 236 272 305 145 118 121 136 195 285 251 169 159 162 167 172 170 167 166 165 167 166 164 164 161 157 155 150 148 145 139 130 122 114 107 105 104 102 98 94 88 84 83
346 105 60 72 173 248 233 278 277 287 157 94 142 17 73 290 182 161 158 166 170 176 174 171 171 171 172 171 171 170 165 161 158 155 153 150 142 135 128 123 116 109 107 104 101 97 88 83 88
8 82 61 83 275 260 260 279 320 245 102 149 146 151 58 147 167 166 164 168 174 177 177 175 177 178 180 178 176 175 173 167 164 161 159 153 147 140 136 129 124 115 109 106 101 97 91 85 80
74 72 60 33 286 283 287 314 326 256 80 119 123 129 134 184 169 172 175 174 177 181 181 180 183 185 185 187 184 183 181 177 172 168 164 161 153 146 134 133 132 129 125 115 104 92 85 66 68
107 77 160 191 279 314 282 354 355 82 81 57 119 81 273 183 183 176 177 179 181 187 187 187 189 188 192 195 194 191 188 187 180 176 172 168 162 156 135 127 120 132 135 135 128 118 100 111 311
94 90 103 250 141 275 325 351 9 57 54 143 124 144 206 186 181 174 177 183 186 190 193 195 195 193 195 198 199 198 196 195 191 189 181 178 174 167 149 127 116 111 114 121 124 138 179 220 265
106 65 158 247 217 244 343 11 345 346 275 180 200 245 245 189 178 173 178 187 192 195 198 198 198 201 201 204 204 204 205 204 203 199 195 192 183 182 167 143 145 124 105 104 102 92 111 242 253
96 103 213 228 260 286 294 306 325 338 206 242 253 267 226 185 180 181 188 195 198 199 198 200 203 207 207 209 210 211 210 209 211 210 209 202 198 194 188 173 175 150 133 115 98 76 47 23 274
144 174 206 276 270 290 290 313 312 208 262 250 232 207 188 184 181 192 200 207 204 199 200 203 208 213 217 218 216 217 216 215 215 215 217 214 212 208 202 198 186 163 148 126 110 115 74 44 50
41 242 219 286 314 306 286 303 174 205 260 256 262 242 193 187 189 196 204 205 201 201 204 207 211 215 215 218 220 222 222 222 221 222 224 224 222 221 215 208 194 183 171 162 153 119 71 60 47
179 274 271 306 308 307 298 278 216 240 249 247 224 207 208 200 200 202 210 214 208 204 208 210 216 223 221 222 223 225 226 228 229 228 230 233 233 231 229 221 217 221 225 218 232 236 271 286 301
219 269 294 301 304 321 304 329 283 335 313 238 209 210 211 213 212 209 215 219 219 214 219 215 223 223 225 225 228 229 233 233 234 235 237 241 242 240 242 241 239 245 253 250 255 268 271 274 280
284 318 334 360 5 352 268 346 240 11 334 240 216 209 212 215 217 224 228 223 225 226 230 225 228 227 225 230 228 227 231 232 232 238 242 244 245 247 249 249 251 254 255 266 268 291 290 288 291
29 53 42 299 343 22 73 290 305 5 353 340 319 225 219 221 222 230 232 232 230 231 240 238 238 231 225 233 230 229 230 232 232 231 244 244 246 247 250 248 251 240 244 273 289 295 299 303 297
10 27 348 326 35 67 53 283 48 16 28 13 359 286 225 223 229 230 234 238 234 235 242 244 248 243 235 234 227 226 229 231 226 231 240 240 238 245 250 252 253 261 267 283 295 302 299 306 304
325 351 321 279 277 18 350 271 349 20 19 21 19 21 243 235 235 237 236 242 242 238 241 248 251 255 249 243 235 230 225 225 230 236 242 244 246 259 260 261 265 269 276 282 275 287 293 290 290
156 199 267 270 240 233 273 272 14 348 25 12 26 35 18 270 252 249 244 243 251 255 250 248 251 253 245 249 248 243 242 237 241 246 248 248 255 265 265 263 263 270 268 267 267 278 286 305 283
189 267 279 283 294 153 264 174 149 29 25 20 27 44 42 21 314 253 246 250 253 256 263 258 259 259 251 256 258 258 256 255 252 254 247 251 251 253 260 262 266 272 268 261 266 261 253 296 303
199 192 249 218 346 272 96 334 11 33 44 26 42 56 52 49 53 45 352 274 269 268 281 325 303 298 280 279 274 269 263 261 258 257 263 271 269 279 276 266 260 271 272 268 266 268 244 294 266
273 211 238 245 111 231 108 262 285 328 358 28 17 30 45 66 83 85 84 77 72 62 39 39 14 346 326 304 265 261 258 258 252 265 283 270 270 277 268 264 305 277 271 273 275 265 255 282 256
225 264 208 237 180 114 297 105 260 358 333 14 17 25 56 75 85 89 90 89 83 68 54 59 57 43 35 20 4 310 280 329 295 294 280 272 259 250 251 261 247 252 267 261 266 264 268 281 264
237 96 43 54 96 132 198 141 271 263 260 318 12 30 67 92 97 97 96 94 88 84 71 57 50 50 45 35 32 24 7 265 86 106 83 239 244 241 226 207 225 231 236 244 251 250 251 262 262
92 69 323 333 358 225 126 110 236 196 193 243 281 56 93 110 109 109 104 98 94 87 77 70 64 60 64 44 33 29 32 37 49 54 56 68 87 106 133 191 206 215 230 240 246 249 249 251 252
179 160 165 230 211 253 308 231 243 193 152 146 165 142 132 126 124 121 114 108 98 87 72 43 30 40 63 55 49 34 24 19 25 32 34 35 55 67 70 51 336 259 254 259 264 268 263 262 254
183 176 155 102 21 60 248 300 276 179 206 202 197 179 161 142 134 131 133 130 118 89 52 24 31 57 60 55 30 26 23 12 13 15 7 2 3 35 14 342 315 304 291 283 273 277 275 267 268
135 150 85 16 187 252 271 260 233 210 212 207 203 195 173 154 147 148 147 145 106 345 330 307 297 270 235 221 45 27 6 22 11 7 360 359 351 353 345 319 292 288 296 294 292 288 289 291 287
128 126 55 116 137 194 234 249 221 204 187 198 210 201 186 177 172 173 178 222 306 345 44 45 71 82 69 67 50 21 3 356 347 355 345 349 346 347 339 331 317 294 291 295 294 297 301 301 307
145 170 149 135 220 192 162 268 309 204 189 195 207 209 210 211 216 229 244 270 258 171 119 80 89 132 168 330 324 302 303 330 318 319 322 324 324 331 325 316 314 305 293 292 295 296 294 304 310